Regional Weather Roundup
Issued by NWS State College, PA

Home | Current Version | Previous Version | Text Only | Print | Product List | Glossary Off
Versions: 1 2 3 4 5 6 7 8 9 10 11 12 13 14 15 16 17 18 19 20 21 22 23 24 25 26 27 28 29 30 31 32 33 34 35 36 37 38 39 40 41 42 43 44 45 46 47 48 49 50

847
ASUS41 KCTP 162110
RWRCTP

REGIONAL WEATHER ROUNDUP
NATIONAL WEATHER SERVICE STATE COLLEGE PA
500 PM EDT WED AUG 16 2017

Note: "fair" indicates few or no clouds below 12,000 feet with no
significant weather and/or obstructions to visibility.

* = STATION THAT DOES NOT REPORT PRECIPITATION /E.G. RAIN...SNOW...ETC/
    THUNDER OR FOG.

PAZ002>004-007>009-013>016-020>023-029>032-162200-
WESTERN PENNSYLVANIA

CITY           SKY/WX    TMP DP  RH WIND       PRES   REMARKS
ERIE           SUNNY     79  49  34 NE7       30.06F
MEADVILLE      SUNNY     80  55  42 NW6       30.08S
FRANKLIN*      SUNNY     79  54  41 NW3       30.08S
NEW CASTLE     FAIR      82  59  45 N7        30.06F
BEAVER COUNTY  MOSUNNY   86  59  39 MISG      30.06F
BUTLER*        SUNNY     82  61  47 NW5       30.06S
PITTSBURGH INT MOSUNNY   84  60  44 N6        30.05S
PITTSBURGH     MOSUNNY   84  58  40 VRB5      30.04S
INDIANA*       PTSUNNY   82  61  47 N8        30.09R
LATROBE        MOSUNNY   82  59  44 CALM      30.06S
WASHINGTON CO* MOSUNNY   82  63  51 CALM      30.05S
$$

PAZ004>006-010>012-017>019-024>028-033>037-041-042-045-046-049>053-162200-
CENTRAL PENNSYLVANIA

CITY           SKY/WX    TMP DP  RH WIND       PRES   REMARKS
BRADFORD       MOSUNNY   77  56  48 MISG      30.09S
DUBOIS         MOSUNNY   80  54  40 W8        30.07S
CLEARFIELD     MOSUNNY   84  53  34 N6        30.06S
JOHNSTOWN      MOSUNNY   78  58  49 NW10      30.10S
ALTOONA        MOSUNNY   82  60  47 NW6       30.06R
STATE COLLEGE  MOSUNNY   81  59  47 NW3       30.04S
WILLIAMSPORT   MOSUNNY   84  60  44 NW6       29.98S
SELINSGROVE    SUNNY     85  65  51 VRB3      29.99F
FT INDIANTOWN  MOSUNNY   84  64  50 CALM      29.99F
CAPITAL CITY   MOSUNNY   86  57  37 N7        29.99S
HARRISBURG     MOSUNNY   84  66  54 W8        29.98S
YORK           SUNNY     85  64  49 NW9       30.00S
$$

PAZ038>040-043-044-047-048-054-055-060>062-067>071-162200-
EASTERN PENNSYLVANIA

CITY           SKY/WX    TMP DP  RH WIND       PRES   REMARKS
SCRANTON       SUNNY     81  61  50 N10       30.02F
MOUNT POCONO   SUNNY     76  60  57 NW9       30.06S
ALLENTOWN      MOSUNNY   84  61  45 N8        29.98S
QUAKERTOWN*    CLEAR     84  61  45 NW3       29.99S
READING        SUNNY     86  62  44 NW10      29.97S
LANCASTER      MOSUNNY   83  66  56 NW7       29.99S
COATESVILLE    CLEAR     82  64  54 NW8       30.01S
POTTSTOWN      PTSUNNY   84  65  52 NW5       29.99S
BLUE BELL      PTSUNNY   82  66  57 NW3       29.98S
DOYLESTOWN     SUNNY     84  63  49 N7        29.97S
WILLOW GROVE   NOT AVBL
NORTH PHILA    CLOUDY    88  65  46 NW8       29.97F
PHILADELPHIA   MOSUNNY   88  62  41 NW10      29.96F
$$




USA.gov is the U.S. government's official web portal to all federal, state and local government web resources and services.